| time (UTC) | temp C | wind direction | speed KPH | gust KPH | rain 1hr cm | rain 24hr cm | rain mn cm | humidity % | barometer mb |
| 20260509170503 | 20 | 215 | 6.4 | 14.5 | 0.00 | 0.00 | 0.00 | 71 | 1008.4 |
| 20260509170003 | 20 | 226 | 6.4 | 16.1 | 0.00 | 0.00 | 0.00 | 71 | 1008.4 |
| 20260509165503 | 20 | 217 | 8.0 | 17.7 | 0.00 | 0.00 | 0.00 | 73 | 1008.4 |
| 20260509165003 | 20 | 198 | 6.4 | 19.3 | 0.00 | 0.00 | 0.00 | 71 | 1008.4 |
| 20260509164503 | 20 | 198 | 6.4 | 19.3 | 0.00 | 0.00 | 0.00 | 71 | 1008.4 |
| 20260509164003 | 19 | 219 | 6.4 | 16.1 | 0.00 | 0.00 | 0.00 | 71 | 1008.4 |
| 20260509163503 | 19 | 221 | 6.4 | 16.1 | 0.00 | 0.00 | 0.00 | 71 | 1008.5 |
| 20260509163003 | 19 | 215 | 4.8 | 16.1 | 0.00 | 0.00 | 0.00 | 73 | 1008.4 |
| 20260509162524 | 19 | 226 | 6.4 | 19.3 | 0.00 | 0.00 | 0.00 | 75 | 1008.4 |
| 20260509162003 | 18 | 218 | 6.4 | 19.3 | 0.00 | 0.00 | 0.00 | 72 | 1008.5 |
| 20260509161503 | 19 | 211 | 6.4 | 19.3 | 0.00 | 0.00 | 0.00 | 73 | 1008.5 |
| 20260509161024 | 18 | 210 | 6.4 | 19.3 | 0.00 | 0.00 | 0.00 | 73 | 1008.4 |
| 20260509160503 | 18 | 215 | 4.8 | 16.1 | 0.00 | 0.00 | 0.00 | 72 | 1008.4 |
| 20260509160003 | 19 | 216 | 4.8 | 16.1 | 0.00 | 0.00 | 0.00 | 72 | 1008.4 |
| 20260509155503 | 19 | 208 | 4.8 | 14.5 | 0.00 | 0.00 | 0.00 | 74 | 1008.4 |
| 20260509155003 | 18 | 220 | 4.8 | 14.5 | 0.00 | 0.00 | 0.00 | 73 | 1008.4 |
| 20260509154503 | 18 | 230 | 4.8 | 12.9 | 0.00 | 0.00 | 0.00 | 74 | 1008.4 |
| 20260509154003 | 18 | 228 | 4.8 | 12.9 | 0.00 | 0.00 | 0.00 | 74 | 1008.5 |
| 20260509153524 | 18 | 226 | 6.4 | 14.5 | 0.00 | 0.00 | 0.00 | 73 | 1008.4 |
| 20260509153003 | 18 | 221 | 6.4 | 14.5 | 0.00 | 0.00 | 0.00 | 72 | 1008.5 |
| 20260509152503 | 17 | 215 | 6.4 | 16.1 | 0.00 | 0.00 | 0.00 | 74 | 1008.5 |
| 20260509152003 | 17 | 225 | 6.4 | 19.3 | 0.00 | 0.00 | 0.00 | 76 | 1008.5 |
| 20260509151503 | 17 | 226 | 6.4 | 19.3 | 0.00 | 0.00 | 0.00 | 76 | 1008.4 |
| 20260509151003 | 17 | 216 | 4.8 | 12.9 | 0.00 | 0.00 | 0.00 | 78 | 1008.3 |
| 20260509150503 | 16 | 224 | 4.8 | 12.9 | 0.00 | 0.00 | 0.00 | 77 | 1008.3 |
| 20260509150024 | 16 | 222 | 4.8 | 14.5 | 0.00 | 0.00 | 0.00 | 78 | 1008.4 |
| 20260509145524 | 16 | 217 | 4.8 | 14.5 | 0.00 | 0.00 | 0.00 | 78 | 1008.3 |
| 20260509145024 | 16 | 219 | 4.8 | 14.5 | 0.00 | 0.00 | 0.00 | 78 | 1008.3 |
| 20260509144503 | 16 | 224 | 4.8 | 14.5 | 0.00 | 0.00 | 0.00 | 80 | 1008.3 |
| 20260509144003 | 16 | 225 | 6.4 | 17.7 | 0.00 | 0.00 | 0.00 | 78 | 1008.3 |
| 20260509143503 | 16 | 220 | 8.0 | 17.7 | 0.00 | 0.00 | 0.00 | 78 | 1008.4 |
| 20260509143003 | 16 | 215 | 8.0 | 20.9 | 0.00 | 0.00 | 0.00 | 77 | 1008.4 |
| 20260509142503 | 16 | 216 | 6.4 | 20.9 | 0.00 | 0.00 | 0.00 | 76 | 1008.4 |
| 20260509142003 | 16 | 217 | 6.4 | 17.7 | 0.00 | 0.00 | 0.00 | 78 | 1008.5 |
| 20260509141503 | 16 | 222 | 6.4 | 17.7 | 0.00 | 0.00 | 0.00 | 78 | 1008.4 |
| 20260509141003 | 15 | 223 | 6.4 | 14.5 | 0.00 | 0.00 | 0.00 | 78 | 1008.5 |
| 20260509140524 | 15 | 219 | 6.4 | 12.9 | 0.00 | 0.00 | 0.00 | 80 | 1008.4 |
| 20260509140024 | 15 | 213 | 4.8 | 12.9 | 0.00 | 0.00 | 0.00 | 81 | 1008.4 |
| 20260509135503 | 15 | 215 | 4.8 | 11.3 | 0.00 | 0.00 | 0.00 | 82 | 1008.4 |
| 20260509135003 | 15 | 212 | 3.2 | 11.3 | 0.00 | 0.00 | 0.00 | 81 | 1008.3 |
| 20260509134503 | 15 | 212 | 1.6 | 8.0 | 0.00 | 0.00 | 0.00 | 81 | 1008.4 |
| 20260509134003 | 14 | 218 | 1.6 | 6.4 | 0.00 | 0.00 | 0.00 | 83 | 1008.4 |
| 20260509133503 | 14 | 213 | 1.6 | 4.8 | 0.00 | 0.00 | 0.00 | 83 | 1008.3 |
| 20260509133024 | 13 | 207 | 1.6 | 4.8 | 0.00 | 0.00 | 0.00 | 83 | 1008.2 |
| 20260509132503 | 13 | 215 | 1.6 | 4.8 | 0.00 | 0.00 | 0.00 | 85 | 1008.1 |
| 20260509132024 | 13 | 221 | 0.0 | 4.8 | 0.00 | 0.00 | 0.00 | 88 | 1008.0 |
| 20260509131503 | 13 | 250 | 0.0 | 1.6 | 0.00 | 0.00 | 0.00 | 87 | 1008.0 |
| 20260509131003 | 13 | 0 | 0.0 | 0.0 | 0.00 | 0.00 | 0.00 | 87 | 1008.0 |
| 20260509130503 | 12 | 0 | 0.0 | 0.0 | 0.00 | 0.00 | 0.00 | 87 | 1008.0 |
| 20260509130024 | 12 | 260 | 0.0 | 3.2 | 0.00 | 0.00 | 0.00 | 87 | 1007.9 |
| 20260509125524 | 12 | 290 | 0.0 | 3.2 | 0.00 | 0.00 | 0.00 | 87 | 1008.1 |
| 20260509125003 | 12 | 24 | 0.0 | 3.2 | 0.00 | 0.00 | 0.00 | 86 | 1007.9 |
| 20260509124503 | 12 | 55 | 1.6 | 3.2 | 0.00 | 0.00 | 0.00 | 87 | 1007.9 |
| 20260509124003 | 12 | 108 | 0.0 | 3.2 | 0.00 | 0.00 | 0.00 | 86 | 1007.9 |
| 20260509123503 | 12 | 0 | 0.0 | 0.0 | 0.00 | 0.00 | 0.00 | 85 | 1008.2 |
| 20260509123003 | 12 | 138 | 0.0 | 1.6 | 0.00 | 0.00 | 0.00 | 85 | 1008.1 |
| 20260509122503 | 12 | 148 | 0.0 | 3.2 | 0.00 | 0.00 | 0.00 | 84 | 1008.1 |
| 20260509122003 | 12 | 160 | 1.6 | 3.2 | 0.00 | 0.00 | 0.00 | 85 | 1007.8 |
| 20260509121524 | 12 | 174 | 1.6 | 4.8 | 0.00 | 0.00 | 0.00 | 85 | 1007.9 |
| 20260509121003 | 12 | 31 | 3.2 | 11.3 | 0.00 | 0.00 | 0.00 | 84 | 1007.6 |
| 20260509120503 | 12 | 32 | 4.8 | 11.3 | 0.00 | 0.00 | 0.00 | 84 | 1007.2 |
| 20260509120003 | 12 | 38 | 3.2 | 8.0 | 0.00 | 0.00 | 0.00 | 85 | 1007.1 |
| 20260509115524 | 12 | 31 | 1.6 | 4.8 | 0.00 | 0.00 | 0.00 | 86 | 1007.2 |
| 20260509115003 | 12 | 5 | 3.2 | 8.0 | 0.00 | 0.00 | 0.00 | 84 | 1007.8 |
| 20260509114503 | 11 | 358 | 3.2 | 8.0 | 0.00 | 0.00 | 0.00 | 86 | 1007.6 |
| 20260509114003 | 11 | 336 | 3.2 | 4.8 | 0.00 | 0.00 | 0.00 | 87 | 1007.7 |
| 20260509113503 | 11 | 330 | 1.6 | 4.8 | 0.00 | 0.00 | 0.00 | 88 | 1007.6 |
| 20260509113024 | 11 | 216 | 0.0 | 3.2 | 0.00 | 0.00 | 0.00 | 89 | 1007.4 |
| 20260509112503 | 11 | 166 | 0.0 | 3.2 | 0.00 | 0.00 | 0.00 | 90 | 1007.4 |
| 20260509112003 | 11 | 171 | 0.0 | 3.2 | 0.00 | 0.00 | 0.00 | 88 | 1007.4 |
| 20260509111503 | 11 | 248 | 0.0 | 1.6 | 0.00 | 0.00 | 0.00 | 88 | 1007.5 |
| 20260509111003 | 11 | 248 | 0.0 | 1.6 | 0.00 | 0.00 | 0.00 | 88 | 1007.5 |
| 20260509110524 | 11 | 248 | 0.0 | 1.6 | 0.00 | 0.00 | 0.00 | 87 | 1007.5 |
| 20260509110024 | 11 | 248 | 0.0 | 1.6 | 0.00 | 0.00 | 0.00 | 88 | 1007.6 |
| 20260509105503 | 11 | 256 | 0.0 | 3.2 | 0.00 | 0.00 | 0.00 | 87 | 1007.6 |
| 20260509105003 | 11 | 254 | 0.0 | 3.2 | 0.00 | 0.00 | 0.00 | 85 | 1007.6 |
| 20260509104503 | 11 | 248 | 0.0 | 1.6 | 0.00 | 0.00 | 0.00 | 85 | 1007.5 |
| 20260509104003 | 11 | 248 | 0.0 | 1.6 | 0.00 | 0.00 | 0.00 | 85 | 1007.5 |
| 20260509103503 | 12 | 246 | 0.0 | 3.2 | 0.00 | 0.00 | 0.00 | 85 | 1007.5 |
| 20260509103003 | 12 | 245 | 0.0 | 3.2 | 0.00 | 0.00 | 0.00 | 86 | 1007.6 |
| 20260509102503 | 12 | 241 | 0.0 | 1.6 | 0.00 | 0.00 | 0.00 | 84 | 1007.6 |
| 20260509102003 | 12 | 241 | 0.0 | 1.6 | 0.00 | 0.00 | 0.00 | 84 | 1007.5 |
| 20260509101503 | 12 | 0 | 0.0 | 0.0 | 0.00 | 0.00 | 0.00 | 83 | 1007.6 |
| 20260509101003 | 12 | 0 | 0.0 | 0.0 | 0.00 | 0.00 | 0.00 | 82 | 1007.6 |
| 20260509100503 | 12 | 0 | 0.0 | 0.0 | 0.00 | 0.00 | 0.00 | 82 | 1007.5 |
| 20260509100003 | 12 | 250 | 0.0 | 3.2 | 0.00 | 0.00 | 0.00 | 80 | 1007.6 |
| 20260509095503 | 12 | 256 | 0.0 | 3.2 | 0.00 | 0.00 | 0.00 | 80 | 1007.6 |
| 20260509095024 | 12 | 295 | 0.0 | 3.2 | 0.00 | 0.00 | 0.00 | 80 | 1007.6 |
| 20260509094503 | 12 | 296 | 0.0 | 1.6 | 0.00 | 0.00 | 0.00 | 80 | 1007.5 |
| 20260509094003 | 12 | 295 | 0.0 | 1.6 | 0.00 | 0.00 | 0.00 | 81 | 1007.6 |
| 20260509093524 | 12 | 295 | 0.0 | 1.6 | 0.00 | 0.00 | 0.00 | 81 | 1007.6 |
| 20260509093003 | 12 | 295 | 0.0 | 1.6 | 0.00 | 0.00 | 0.00 | 78 | 1007.8 |
| 20260509092503 | 12 | 295 | 0.0 | 1.6 | 0.00 | 0.00 | 0.00 | 78 | 1007.8 |
| 20260509092003 | 12 | 295 | 0.0 | 1.6 | 0.00 | 0.00 | 0.00 | 79 | 1007.8 |
| 20260509091524 | 13 | 296 | 1.6 | 3.2 | 0.00 | 0.00 | 0.00 | 79 | 1007.8 |
| 20260509091003 | 13 | 287 | 1.6 | 4.8 | 0.00 | 0.00 | 0.00 | 78 | 1007.8 |
| 20260509090503 | 13 | 271 | 1.6 | 4.8 | 0.00 | 0.00 | 0.00 | 75 | 1007.7 |
| 20260509090003 | 13 | 257 | 1.6 | 4.8 | 0.00 | 0.00 | 0.00 | 74 | 1007.7 |
| 20260509085503 | 13 | 218 | 0.0 | 3.2 | 0.00 | 0.00 | 0.00 | 73 | 1007.6 |
| 20260509085003 | 13 | 228 | 1.6 | 3.2 | 0.00 | 0.00 | 0.00 | 71 | 1007.7 |
| 20260509084503 | 13 | 238 | 0.0 | 3.2 | 0.00 | 0.00 | 0.00 | 72 | 1007.6 |
| 20260509084003 | 13 | 224 | 0.0 | 3.2 | 0.00 | 0.00 | 0.00 | 73 | 1007.7 |
| 20260509083503 | 12 | 205 | 1.6 | 8.0 | 0.00 | 0.00 | 0.00 | 74 | 1007.7 |
| 20260509083003 | 12 | 189 | 1.6 | 8.0 | 0.00 | 0.00 | 0.00 | 76 | 1007.9 |
| 20260509082503 | 12 | 192 | 1.6 | 8.0 | 0.00 | 0.00 | 0.00 | 79 | 1007.9 |
| 20260509082003 | 12 | 197 | 1.6 | 9.7 | 0.00 | 0.00 | 0.00 | 83 | 1007.8 |
| 20260509081503 | 12 | 194 | 1.6 | 9.7 | 0.00 | 0.00 | 0.00 | 85 | 1007.9 |
| 20260509081003 | 12 | 193 | 1.6 | 3.2 | 0.00 | 0.00 | 0.00 | 87 | 1007.9 |
| 20260509080503 | 12 | 176 | 0.0 | 3.2 | 0.00 | 0.00 | 0.00 | 88 | 1007.9 |
| 20260509080003 | 12 | 180 | 0.0 | 4.8 | 0.00 | 0.00 | 0.00 | 88 | 1007.9 |
| 20260509075503 | 12 | 171 | 0.0 | 4.8 | 0.00 | 0.00 | 0.00 | 88 | 1007.9 |
| 20260509075024 | 12 | 164 | 0.0 | 3.2 | 0.00 | 0.00 | 0.00 | 88 | 1007.9 |
| 20260509074503 | 12 | 164 | 0.0 | 3.2 | 0.00 | 0.00 | 0.00 | 88 | 1008.0 |
| 20260509074003 | 12 | 0 | 0.0 | 0.0 | 0.00 | 0.00 | 0.00 | 89 | 1008.0 |
| 20260509073503 | 12 | 0 | 0.0 | 0.0 | 0.00 | 0.00 | 0.00 | 88 | 1008.1 |
| 20260509073024 | 12 | 0 | 0.0 | 0.0 | 0.00 | 0.00 | 0.00 | 88 | 1008.1 |
| 20260509072503 | 12 | 0 | 0.0 | 0.0 | 0.00 | 0.00 | 0.00 | 89 | 1008.1 |
| 20260509072003 | 12 | 0 | 0.0 | 0.0 | 0.00 | 0.00 | 0.00 | 88 | 1008.1 |
| 20260509071503 | 12 | 0 | 0.0 | 0.0 | 0.00 | 0.00 | 0.00 | 87 | 1008.1 |
| 20260509071003 | 12 | 0 | 0.0 | 0.0 | 0.00 | 0.00 | 0.00 | 86 | 1008.3 |
| 20260509070503 | 12 | 179 | 0.0 | 3.2 | 0.00 | 0.00 | 0.00 | 86 | 1008.3 |
| 20260509070003 | 12 | 187 | 0.0 | 3.2 | 0.00 | 0.00 | 0.00 | 86 | 1008.4 |
| 20260509065503 | 12 | 229 | 0.0 | 1.6 | 0.00 | 0.00 | 0.00 | 85 | 1008.4 |
| 20260509065003 | 12 | 0 | 0.0 | 0.0 | 0.00 | 0.00 | 0.00 | 86 | 1008.4 |
| 20260509064503 | 12 | 0 | 0.0 | 0.0 | 0.00 | 0.00 | 0.00 | 86 | 1008.6 |
| 20260509064024 | 12 | 0 | 0.0 | 0.0 | 0.00 | 0.00 | 0.00 | 88 | 1008.6 |
| 20260509063503 | 12 | 225 | 0.0 | 1.6 | 0.00 | 0.00 | 0.00 | 87 | 1008.7 |
| 20260509063024 | 12 | 225 | 0.0 | 1.6 | 0.00 | 0.00 | 0.00 | 86 | 1008.7 |
| 20260509062503 | 12 | 0 | 0.0 | 0.0 | 0.00 | 0.00 | 0.00 | 87 | 1008.7 |
| 20260509062003 | 12 | 0 | 0.0 | 0.0 | 0.00 | 0.00 | 0.00 | 86 | 1008.6 |
| 20260509061503 | 12 | 0 | 0.0 | 0.0 | 0.00 | 0.00 | 0.00 | 86 | 1008.5 |
| 20260509061003 | 12 | 0 | 0.0 | 0.0 | 0.00 | 0.00 | 0.00 | 86 | 1008.5 |
| 20260509060503 | 12 | 0 | 0.0 | 0.0 | 0.00 | 0.00 | 0.00 | 86 | 1008.6 |
| 20260509060003 | 12 | 0 | 0.0 | 0.0 | 0.00 | 0.00 | 0.00 | 86 | 1008.5 |
| 20260509055503 | 12 | 0 | 0.0 | 0.0 | 0.00 | 0.00 | 0.00 | 86 | 1008.6 |
| 20260509055024 | 12 | 0 | 0.0 | 0.0 | 0.00 | 0.00 | 0.00 | 86 | 1008.5 |
| 20260509054524 | 12 | 0 | 0.0 | 0.0 | 0.00 | 0.00 | 0.00 | 86 | 1008.6 |
| 20260509054003 | 12 | 229 | 0.0 | 1.6 | 0.00 | 0.00 | 0.00 | 85 | 1008.7 |
| 20260509053503 | 12 | 229 | 0.0 | 1.6 | 0.00 | 0.00 | 0.00 | 84 | 1008.6 |
| 20260509053003 | 12 | 229 | 0.0 | 1.6 | 0.00 | 0.00 | 0.00 | 84 | 1008.6 |
| 20260509052503 | 12 | 229 | 0.0 | 1.6 | 0.00 | 0.00 | 0.00 | 83 | 1008.6 |
| 20260509052003 | 12 | 229 | 0.0 | 1.6 | 0.00 | 0.00 | 0.00 | 83 | 1008.6 |
| 20260509051503 | 12 | 229 | 0.0 | 1.6 | 0.00 | 0.00 | 0.00 | 84 | 1008.6 |
| 20260509051003 | 12 | 228 | 0.0 | 1.6 | 0.00 | 0.00 | 0.00 | 83 | 1008.6 |
| 20260509050503 | 12 | 0 | 0.0 | 0.0 | 0.00 | 0.00 | 0.00 | 83 | 1008.7 |
| 20260509050003 | 12 | 0 | 0.0 | 0.0 | 0.00 | 0.00 | 0.00 | 83 | 1008.6 |
| 20260509045524 | 12 | 0 | 0.0 | 0.0 | 0.00 | 0.00 | 0.00 | 83 | 1008.6 |
| 20260509045003 | 12 | 0 | 0.0 | 0.0 | 0.00 | 0.00 | 0.00 | 80 | 1008.6 |
| 20260509044503 | 11 | 0 | 0.0 | 0.0 | 0.00 | 0.00 | 0.00 | 81 | 1008.6 |
| 20260509044003 | 11 | 0 | 0.0 | 0.0 | 0.00 | 0.00 | 0.00 | 84 | 1008.7 |
| 20260509043503 | 11 | 0 | 0.0 | 0.0 | 0.00 | 0.00 | 0.00 | 83 | 1008.6 |
| 20260509043003 | 11 | 0 | 0.0 | 0.0 | 0.00 | 0.00 | 0.00 | 82 | 1008.8 |
| 20260509042503 | 11 | 0 | 0.0 | 0.0 | 0.00 | 0.00 | 0.00 | 82 | 1008.8 |
| 20260509042003 | 11 | 0 | 0.0 | 0.0 | 0.00 | 0.00 | 0.00 | 83 | 1008.8 |
| 20260509041503 | 11 | 0 | 0.0 | 0.0 | 0.00 | 0.00 | 0.00 | 81 | 1009.0 |
| 20260509041003 | 11 | 229 | 0.0 | 1.6 | 0.00 | 0.00 | 0.00 | 81 | 1009.1 |
| 20260509040503 | 12 | 229 | 0.0 | 1.6 | 0.00 | 0.00 | 0.00 | 80 | 1009.1 |
| 20260509040003 | 12 | 0 | 0.0 | 0.0 | 0.00 | 0.00 | 0.00 | 80 | 1009.2 |
| 20260509035503 | 12 | 0 | 0.0 | 0.0 | 0.00 | 0.00 | 0.00 | 77 | 1009.1 |
| 20260509035003 | 12 | 0 | 0.0 | 0.0 | 0.00 | 0.00 | 0.00 | 76 | 1009.1 |
| 20260509034524 | 12 | 0 | 0.0 | 0.0 | 0.00 | 0.00 | 0.00 | 76 | 1009.1 |
| 20260509034003 | 12 | 0 | 0.0 | 0.0 | 0.00 | 0.00 | 0.00 | 75 | 1009.1 |
| 20260509033503 | 12 | 0 | 0.0 | 0.0 | 0.00 | 0.00 | 0.00 | 73 | 1009.2 |
| 20260509033003 | 13 | 0 | 0.0 | 0.0 | 0.00 | 0.00 | 0.00 | 72 | 1009.3 |
| 20260509032503 | 13 | 0 | 0.0 | 0.0 | 0.00 | 0.00 | 0.00 | 73 | 1009.3 |
| 20260509032024 | 13 | 0 | 0.0 | 0.0 | 0.00 | 0.00 | 0.00 | 71 | 1009.3 |
| 20260509031524 | 13 | 0 | 0.0 | 0.0 | 0.00 | 0.00 | 0.00 | 75 | 1009.4 |
| 20260509031003 | 13 | 0 | 0.0 | 0.0 | 0.00 | 0.00 | 0.00 | 75 | 1009.5 |
| 20260509030503 | 13 | 0 | 0.0 | 0.0 | 0.00 | 0.00 | 0.00 | 74 | 1009.6 |
| 20260509030003 | 13 | 0 | 0.0 | 0.0 | 0.00 | 0.00 | 0.00 | 75 | 1009.6 |
| 20260509025524 | 13 | 0 | 0.0 | 0.0 | 0.00 | 0.00 | 0.00 | 75 | 1009.5 |
| 20260509025024 | 13 | 0 | 0.0 | 0.0 | 0.00 | 0.00 | 0.00 | 73 | 1009.6 |
| 20260509024524 | 13 | 0 | 0.0 | 0.0 | 0.00 | 0.00 | 0.00 | 72 | 1009.6 |
| 20260509024003 | 13 | 0 | 0.0 | 0.0 | 0.00 | 0.00 | 0.00 | 73 | 1009.6 |
| 20260509023524 | 13 | 225 | 0.0 | 1.6 | 0.00 | 0.00 | 0.00 | 70 | 1009.6 |
| 20260509023003 | 13 | 201 | 0.0 | 1.6 | 0.00 | 0.00 | 0.00 | 70 | 1009.7 |
| 20260509022524 | 14 | 190 | 0.0 | 3.2 | 0.00 | 0.00 | 0.00 | 72 | 1009.7 |
| 20260509022024 | 14 | 200 | 1.6 | 3.2 | 0.00 | 0.00 | 0.00 | 73 | 1009.7 |
| 20260509021503 | 14 | 205 | 1.6 | 3.2 | 0.00 | 0.00 | 0.00 | 72 | 1009.7 |
| 20260509021003 | 14 | 204 | 0.0 | 3.2 | 0.00 | 0.00 | 0.00 | 70 | 1009.7 |
| 20260509020503 | 14 | 200 | 0.0 | 3.2 | 0.00 | 0.00 | 0.00 | 69 | 1009.7 |
| 20260509020024 | 15 | 203 | 0.0 | 1.6 | 0.00 | 0.00 | 0.00 | 68 | 1009.7 |
| 20260509015503 | 15 | 212 | 0.0 | 1.6 | 0.00 | 0.00 | 0.00 | 66 | 1009.8 |
| 20260509015003 | 15 | 212 | 0.0 | 1.6 | 0.00 | 0.00 | 0.00 | 64 | 1009.8 |
| 20260509014503 | 15 | 213 | 0.0 | 3.2 | 0.00 | 0.00 | 0.00 | 63 | 1009.8 |
| 20260509014003 | 16 | 210 | 0.0 | 3.2 | 0.00 | 0.00 | 0.00 | 61 | 1009.8 |
| 20260509013503 | 16 | 211 | 0.0 | 3.2 | 0.00 | 0.00 | 0.00 | 60 | 1009.8 |
| 20260509013003 | 16 | 219 | 1.6 | 3.2 | 0.00 | 0.00 | 0.00 | 54 | 1009.7 |
| 20260509012503 | 16 | 221 | 1.6 | 3.2 | 0.00 | 0.00 | 0.00 | 53 | 1009.7 |
| 20260509012003 | 16 | 214 | 1.6 | 3.2 | 0.00 | 0.00 | 0.00 | 50 | 1009.5 |
| 20260509011524 | 16 | 203 | 1.6 | 3.2 | 0.00 | 0.00 | 0.00 | 51 | 1009.4 |
| 20260509011003 | 17 | 199 | 1.6 | 4.8 | 0.00 | 0.00 | 0.00 | 51 | 1009.5 |
| 20260509010503 | 17 | 197 | 1.6 | 4.8 | 0.00 | 0.00 | 0.00 | 50 | 1009.4 |
| 20260509010003 | 17 | 190 | 1.6 | 6.4 | 0.00 | 0.00 | 0.00 | 50 | 1009.4 |
| 20260509005503 | 17 | 194 | 1.6 | 6.4 | 0.00 | 0.00 | 0.00 | 50 | 1009.4 |
| 20260509005003 | 17 | 200 | 3.2 | 6.4 | 0.00 | 0.00 | 0.00 | 49 | 1009.4 |
| 20260509004503 | 17 | 204 | 3.2 | 8.0 | 0.00 | 0.00 | 0.00 | 49 | 1009.4 |
| 20260509004003 | 17 | 201 | 3.2 | 9.7 | 0.00 | 0.00 | 0.00 | 49 | 1009.4 |
| 20260509003503 | 18 | 200 | 3.2 | 9.7 | 0.00 | 0.00 | 0.00 | 49 | 1009.5 |
| 20260509003003 | 18 | 207 | 3.2 | 8.0 | 0.00 | 0.00 | 0.00 | 47 | 1009.4 |
| 20260509002503 | 18 | 199 | 3.2 | 8.0 | 0.00 | 0.00 | 0.00 | 46 | 1009.5 |
| 20260509002003 | 18 | 193 | 3.2 | 6.4 | 0.00 | 0.00 | 0.00 | 47 | 1009.5 |
| 20260509001503 | 18 | 198 | 3.2 | 8.0 | 0.00 | 0.00 | 0.00 | 46 | 1009.6 |
| 20260509001024 | 18 | 203 | 3.2 | 9.7 | 0.00 | 0.00 | 0.00 | 45 | 1009.7 |
| 20260509000503 | 18 | 212 | 3.2 | 11.3 | 0.00 | 0.00 | 0.00 | 43 | 1009.8 |
| 20260509000003 | 19 | 211 | 3.2 | 12.9 | 0.00 | 0.00 | 0.00 | 45 | 1009.9 |
| 20260508235503 | 19 | 212 | 4.8 | 12.9 | 0.00 | 0.00 | 0.00 | 43 | 1009.9 |
| 20260508235003 | 19 | 218 | 4.8 | 12.9 | 0.00 | 0.00 | 0.00 | 42 | 1009.9 |
| 20260508234503 | 19 | 223 | 4.8 | 12.9 | 0.00 | 0.00 | 0.00 | 43 | 1009.9 |
| 20260508234003 | 20 | 217 | 6.4 | 17.7 | 0.00 | 0.00 | 0.00 | 42 | 1009.9 |
| 20260508233503 | 20 | 203 | 6.4 | 17.7 | 0.00 | 0.00 | 0.00 | 42 | 1009.8 |
| 20260508233003 | 20 | 197 | 6.4 | 16.1 | 0.00 | 0.00 | 0.00 | 43 | 1009.7 |
| 20260508232503 | 20 | 205 | 6.4 | 16.1 | 0.00 | 0.00 | 0.00 | 40 | 1009.9 |
| 20260508232003 | 20 | 208 | 4.8 | 16.1 | 0.00 | 0.00 | 0.00 | 41 | 1009.9 |
| 20260508231503 | 20 | 201 | 4.8 | 17.7 | 0.00 | 0.00 | 0.00 | 39 | 1009.9 |
| 20260508231003 | 21 | 209 | 6.4 | 17.7 | 0.00 | 0.00 | 0.00 | 39 | 1009.9 |
| 20260508230503 | 21 | 212 | 6.4 | 17.7 | 0.00 | 0.00 | 0.00 | 40 | 1009.9 |
| 20260508230003 | 21 | 205 | 6.4 | 24.1 | 0.00 | 0.00 | 0.00 | 40 | 1009.9 |
| 20260508225503 | 21 | 205 | 8.0 | 24.1 | 0.00 | 0.00 | 0.00 | 37 | 1009.8 |
| 20260508225024 | 21 | 206 | 8.0 | 17.7 | 0.00 | 0.00 | 0.00 | 38 | 1009.9 |
| 20260508224503 | 21 | 208 | 6.4 | 24.1 | 0.00 | 0.00 | 0.00 | 36 | 1009.8 |
| 20260508224003 | 21 | 213 | 6.4 | 24.1 | 0.00 | 0.00 | 0.00 | 38 | 1009.8 |
| 20260508223503 | 21 | 222 | 6.4 | 17.7 | 0.00 | 0.00 | 0.00 | 39 | 1009.9 |
| 20260508223003 | 21 | 218 | 6.4 | 17.7 | 0.00 | 0.00 | 0.00 | 38 | 1009.8 |
| 20260508222524 | 21 | 218 | 6.4 | 20.9 | 0.00 | 0.00 | 0.00 | 39 | 1009.9 |
| 20260508222003 | 21 | 220 | 8.0 | 24.1 | 0.00 | 0.00 | 0.00 | 39 | 1009.9 |
| 20260508221503 | 21 | 211 | 8.0 | 24.1 | 0.00 | 0.00 | 0.00 | 36 | 1009.9 |
| 20260508221003 | 22 | 195 | 6.4 | 17.7 | 0.00 | 0.00 | 0.00 | 38 | 1009.9 |
| 20260508220524 | 21 | 195 | 6.4 | 19.3 | 0.00 | 0.00 | 0.00 | 38 | 1009.8 |
| 20260508220003 | 22 | 200 | 6.4 | 19.3 | 0.00 | 0.00 | 0.00 | 40 | 1009.8 |
| 20260508215503 | 22 | 196 | 4.8 | 14.5 | 0.00 | 0.00 | 0.00 | 38 | 1009.8 |
| 20260508215003 | 22 | 198 | 8.0 | 24.1 | 0.00 | 0.00 | 0.00 | 38 | 1009.8 |
| 20260508214524 | 22 | 206 | 8.0 | 24.1 | 0.00 | 0.00 | 0.00 | 37 | 1009.9 |
| 20260508214003 | 22 | 204 | 6.4 | 24.1 | 0.00 | 0.00 | 0.00 | 37 | 1009.8 |
| 20260508213503 | 22 | 204 | 6.4 | 25.7 | 0.00 | 0.00 | 0.00 | 39 | 1009.7 |
| 20260508213024 | 22 | 204 | 6.4 | 25.7 | 0.00 | 0.00 | 0.00 | 40 | 1009.8 |
| 20260508212503 | 22 | 210 | 8.0 | 25.7 | 0.00 | 0.00 | 0.00 | 38 | 1010.0 |
| 20260508212003 | 22 | 210 | 8.0 | 25.7 | 0.00 | 0.00 | 0.00 | 40 | 1010.0 |
| 20260508211503 | 22 | 211 | 8.0 | 19.3 | 0.00 | 0.00 | 0.00 | 39 | 1010.0 |
| 20260508211003 | 22 | 217 | 8.0 | 20.9 | 0.00 | 0.00 | 0.00 | 40 | 1010.1 |
| 20260508210503 | 22 | 213 | 6.4 | 20.9 | 0.00 | 0.00 | 0.00 | 39 | 1010.2 |
| 20260508210024 | 22 | 210 | 8.0 | 25.7 | 0.00 | 0.00 | 0.00 | 39 | 1010.4 |
| 20260508205503 | 22 | 199 | 9.7 | 25.7 | 0.00 | 0.00 | 0.00 | 37 | 1010.4 |
| 20260508205024 | 22 | 199 | 9.7 | 25.7 | 0.00 | 0.00 | 0.00 | 40 | 1010.4 |
| 20260508204503 | 22 | 212 | 8.0 | 19.3 | 0.00 | 0.00 | 0.00 | 36 | 1010.6 |
| 20260508204024 | 22 | 219 | 6.4 | 22.5 | 0.00 | 0.00 | 0.00 | 39 | 1010.7 |
| 20260508203503 | 22 | 222 | 8.0 | 22.5 | 0.00 | 0.00 | 0.00 | 40 | 1010.9 |
| 20260508203024 | 22 | 218 | 8.0 | 22.5 | 0.00 | 0.00 | 0.00 | 40 | 1011.0 |
| 20260508202503 | 22 | 214 | 8.0 | 19.3 | 0.00 | 0.00 | 0.00 | 41 | 1011.2 |
| 20260508202003 | 22 | 220 | 8.0 | 24.1 | 0.00 | 0.00 | 0.00 | 42 | 1011.4 |
| 20260508201503 | 22 | 223 | 8.0 | 24.1 | 0.00 | 0.00 | 0.00 | 39 | 1011.2 |
| 20260508201003 | 22 | 217 | 8.0 | 22.5 | 0.00 | 0.00 | 0.00 | 39 | 1011.3 |
| 20260508200503 | 22 | 214 | 6.4 | 22.5 | 0.00 | 0.00 | 0.00 | 38 | 1011.3 |
| 20260508200003 | 21 | 213 | 8.0 | 22.5 | 0.00 | 0.00 | 0.00 | 41 | 1011.3 |
| 20260508195503 | 21 | 215 | 8.0 | 22.5 | 0.00 | 0.00 | 0.00 | 40 | 1011.2 |
| 20260508195003 | 21 | 215 | 8.0 | 22.5 | 0.00 | 0.00 | 0.00 | 38 | 1011.1 |
| 20260508194503 | 21 | 206 | 8.0 | 20.9 | 0.00 | 0.00 | 0.00 | 41 | 1011.2 |
| 20260508194003 | 21 | 195 | 8.0 | 20.9 | 0.00 | 0.00 | 0.00 | 42 | 1011.2 |
| 20260508193503 | 21 | 184 | 8.0 | 24.1 | 0.00 | 0.00 | 0.00 | 41 | 1011.3 |
| 20260508193024 | 21 | 197 | 8.0 | 24.1 | 0.00 | 0.00 | 0.00 | 42 | 1011.4 |
| 20260508192524 | 21 | 217 | 8.0 | 22.5 | 0.00 | 0.00 | 0.00 | 41 | 1011.5 |
| 20260508192003 | 21 | 212 | 8.0 | 25.7 | 0.00 | 0.00 | 0.00 | 40 | 1011.6 |
| 20260508191503 | 21 | 208 | 8.0 | 22.5 | 0.00 | 0.00 | 0.00 | 38 | 1011.5 |
| 20260508191003 | 21 | 214 | 8.0 | 20.9 | 0.00 | 0.00 | 0.00 | 41 | 1011.6 |
| 20260508190503 | 21 | 213 | 6.4 | 20.9 | 0.00 | 0.00 | 0.00 | 40 | 1011.8 |
| 20260508190003 | 21 | 211 | 6.4 | 19.3 | 0.00 | 0.00 | 0.00 | 40 | 1011.9 |
| 20260508185503 | 21 | 209 | 8.0 | 19.3 | 0.00 | 0.00 | 0.00 | 43 | 1011.9 |
| 20260508185003 | 21 | 200 | 8.0 | 27.4 | 0.00 | 0.00 | 0.00 | 40 | 1011.9 |
| 20260508184503 | 21 | 198 | 8.0 | 27.4 | 0.00 | 0.00 | 0.00 | 42 | 1012.0 |
| 20260508184003 | 21 | 211 | 8.0 | 24.1 | 0.00 | 0.00 | 0.00 | 39 | 1012.1 |
| 20260508183503 | 21 | 208 | 8.0 | 24.1 | 0.00 | 0.00 | 0.00 | 41 | 1012.1 |
| 20260508183003 | 21 | 198 | 6.4 | 19.3 | 0.00 | 0.00 | 0.00 | 42 | 1012.3 |
| 20260508182503 | 21 | 211 | 6.4 | 17.7 | 0.00 | 0.00 | 0.00 | 47 | 1012.4 |
| 20260508182003 | 21 | 223 | 9.7 | 29.0 | 0.00 | 0.00 | 0.00 | 43 | 1012.5 |
| 20260508181503 | 21 | 216 | 9.7 | 29.0 | 0.00 | 0.00 | 0.00 | 42 | 1012.7 |
| 20260508181003 | 21 | 202 | 8.0 | 22.5 | 0.00 | 0.00 | 0.00 | 41 | 1012.7 |
| 20260508180503 | 21 | 204 | 8.0 | 19.3 | 0.00 | 0.00 | 0.00 | 42 | 1012.7 |
| 20260508180003 | 21 | 208 | 8.0 | 19.3 | 0.00 | 0.00 | 0.00 | 42 | 1013.0 |
| 20260508175503 | 20 | 214 | 8.0 | 19.3 | 0.00 | 0.00 | 0.00 | 45 | 1013.0 |
| 20260508175003 | 20 | 216 | 6.4 | 19.3 | 0.00 | 0.00 | 0.00 | 43 | 1013.0 |
| 20260508174503 | 20 | 195 | 6.4 | 24.1 | 0.00 | 0.00 | 0.00 | 44 | 1013.2 |
| 20260508174003 | 21 | 190 | 8.0 | 24.1 | 0.00 | 0.00 | 0.00 | 44 | 1013.3 |
| 20260508173503 | 21 | 188 | 6.4 | 16.1 | 0.00 | 0.00 | 0.00 | 45 | 1013.4 |
| 20260508173024 | 21 | 198 | 6.4 | 16.1 | 0.00 | 0.00 | 0.00 | 46 | 1013.4 |
| 20260508172503 | 21 | 205 | 4.8 | 16.1 | 0.00 | 0.00 | 0.00 | 45 | 1013.5 |
| 20260508172003 | 20 | 211 | 4.8 | 16.1 | 0.00 | 0.00 | 0.00 | 44 | 1013.5 |
| 20260508171524 | 20 | 197 | 6.4 | 19.3 | 0.00 | 0.00 | 0.00 | 44 | 1013.6 |
| 20260508171003 | 20 | 184 | 6.4 | 19.3 | 0.00 | 0.00 | 0.00 | 49 | 1013.8 |